STARLINK-11231 [DTC] (61057 NORAD) Tracking and Keplerian Element Data

This shows tracking and keplerian element data for the satellite.

Feedback or suggestion? Click here.




ElementValue
Catalog61057
NameSTARLINK-11231 [DTC]
Epoch Orbit481
Epoch Day286.51241391
Epoch Year2024
RAAN321.4241
Inclination53.1569
Eccentricity0.0001236
Argument of Perigee60.3625
Mean Anonmoly299.7516
Mean Motion15.69720012
Decay Rate0.00020152
L11 61057U 24164H 24286.51241391 .00020152 00000+0 17072-3 0 9993
L22 61057 53.1569 321.4241 0001236 60.3625 299.7516 15.69720012 4816



Live tracking and technical data element details for STARLINK-11231 [DTC] (NORAD 61057). STARLINK-11231 [DTC] can be tracked NOW for your location showing map with azimuth and elevation plus other details from your city location.







IsCatalogInMostPopularTable: catalog: 61057, numindb: 23
Update: records affected: 1



GetName: 61057 STARLINK-11231 [DTC]

Hit Count: updated at: Wed, 04 Dec 2024 09:40:57 GMT